owner,sensor,date,latitude,longitude,vertical_datum,wind_speed,wind_to_direction,wind_speed_of_gust,qcFlag 
DISL,ioos:station:DISL:DISL:1,2017-03-01T00:00:00Z,30.2513,-88.0778,9.68,3.39,134.4,-999.0,'1111122,1111122,1111122' 
DISL,ioos:station:DISL:DISL:1,2017-03-01T00:30:00Z,30.2513,-88.0778,9.68,2.88,140.8,-999.0,'1111122,1111122,1111122' 
DISL,ioos:station:DISL:DISL:1,2017-03-01T01:00:00Z,30.2513,-88.0778,9.68,3.45,140.2,-999.0,'1111122,1111122,1111122' 
DISL,ioos:station:DISL:DISL:1,2017-03-01T01:30:00Z,30.2513,-88.0778,9.68,3.48,145.5,-999.0,'1111122,1111122,1111122' 
DISL,ioos:station:DISL:DISL:1,2017-03-01T02:00:00Z,30.2513,-88.0778,9.68,3.09,154.8,-999.0,'1111122,1111122,1111122' 
DISL,ioos:station:DISL:DISL:1,2017-03-01T02:30:00Z,30.2513,-88.0778,9.68,2.65,146.9,-999.0,'1111122,1111122,1111122' 
DISL,ioos:station:DISL:DISL:1,2017-03-01T03:00:00Z,30.2513,-88.0778,9.68,3.15,144.9,-999.0,'1111122,1111122,1111122' 
DISL,ioos:station:DISL:DISL:1,2017-03-01T03:30:00Z,30.2513,-88.0778,9.68,2.96,154.7,-999.0,'1111122,1111122,1111122' 
DISL,ioos:station:DISL:DISL:1,2017-03-01T04:00:00Z,30.2513,-88.0778,9.68,3.54,159.8,-999.0,'1111122,1111122,1111122' 
DISL,ioos:station:DISL:DISL:1,2017-03-01T04:30:00Z,30.2513,-88.0778,9.68,2.64,166.8,-999.0,'1111122,1111122,1111122' 
DISL,ioos:station:DISL:DISL:1,2017-03-01T05:00:00Z,30.2513,-88.0778,9.68,2.43,170.2,-999.0,'1111122,1111122,1111122' 
DISL,ioos:station:DISL:DISL:1,2017-03-01T05:30:00Z,30.2513,-88.0778,9.68,2.05,168.8,-999.0,'1111122,1111122,1111122' 
DISL,ioos:station:DISL:DISL:1,2017-03-01T06:00:00Z,30.2513,-88.0778,9.68,3.01,168.8,-999.0,'1111122,1111122,1111122' 
DISL,ioos:station:DISL:DISL:1,2017-03-01T06:30:00Z,30.2513,-88.0778,9.68,3.06,176.7,-999.0,'1111122,1111122,1111122' 
DISL,ioos:station:DISL:DISL:1,2017-03-01T07:00:00Z,30.2513,-88.0778,9.68,3.14,167.4,-999.0,'1111122,1111122,1111122' 
DISL,ioos:station:DISL:DISL:1,2017-03-01T07:30:00Z,30.2513,-88.0778,9.68,3.32,161.5,-999.0,'1111122,1111122,1111122' 
DISL,ioos:station:DISL:DISL:1,2017-03-01T08:00:00Z,30.2513,-88.0778,9.68,3.63,166.6,-999.0,'1111122,1111122,1111122' 
DISL,ioos:station:DISL:DISL:1,2017-03-01T08:30:00Z,30.2513,-88.0778,9.68,3.23,169.1,-999.0,'1111122,1111122,1111122' 
DISL,ioos:station:DISL:DISL:1,2017-03-01T09:00:00Z,30.2513,-88.0778,9.68,3.71,168.8,-999.0,'1111122,1111122,1111122' 
DISL,ioos:station:DISL:DISL:1,2017-03-01T09:30:00Z,30.2513,-88.0778,9.68,4.56,178.1,-999.0,'1111122,1111122,1111122' 
DISL,ioos:station:DISL:DISL:1,2017-03-01T10:00:00Z,30.2513,-88.0778,9.68,4.11,162.2,-999.0,'1111122,1111122,1111122' 
DISL,ioos:station:DISL:DISL:1,2017-03-01T10:30:00Z,30.2513,-88.0778,9.68,4.66,174.5,-999.0,'1111122,1111122,1111122' 
DISL,ioos:station:DISL:DISL:1,2017-03-01T11:00:00Z,30.2513,-88.0778,9.68,2.61,180.7,-999.0,'1111122,1111122,1111122' 
DISL,ioos:station:DISL:DISL:1,2017-03-01T11:30:00Z,30.2513,-88.0778,9.68,3.49,178.3,-999.0,'1111122,1111122,1111122' 
DISL,ioos:station:DISL:DISL:1,2017-03-01T12:00:00Z,30.2513,-88.0778,9.68,2.98,182.2,-999.0,'1111122,1111122,1111122' 
DISL,ioos:station:DISL:DISL:1,2017-03-01T12:30:00Z,30.2513,-88.0778,9.68,3.29,190.7,-999.0,'1111122,1111122,1111122' 
DISL,ioos:station:DISL:DISL:1,2017-03-01T13:00:00Z,30.2513,-88.0778,9.68,2.54,187.5,-999.0,'1111122,1111122,1111122' 
DISL,ioos:station:DISL:DISL:1,2017-03-01T13:30:00Z,30.2513,-88.0778,9.68,2.31,200.7,-999.0,'1111122,1111122,1111122' 
DISL,ioos:station:DISL:DISL:1,2017-03-01T14:00:00Z,30.2513,-88.0778,9.68,2.32,201.4,-999.0,'1111122,1111122,1111122' 
DISL,ioos:station:DISL:DISL:1,2017-03-01T14:30:00Z,30.2513,-88.0778,9.68,2.24,232.2,-999.0,'1111122,1111122,1111122' 
DISL,ioos:station:DISL:DISL:1,2017-03-01T15:00:00Z,30.2513,-88.0778,9.68,2.14,208.4,-999.0,'1111122,1111122,1111122' 
DISL,ioos:station:DISL:DISL:1,2017-03-01T15:30:00Z,30.2513,-88.0778,9.68,3.14,165.6,-999.0,'1111122,1111122,1111122' 
DISL,ioos:station:DISL:DISL:1,2017-03-01T16:00:00Z,30.2513,-88.0778,9.68,2.1,219.0,-999.0,'1111122,1111122,1111122' 
DISL,ioos:station:DISL:DISL:1,2017-03-01T16:30:00Z,30.2513,-88.0778,9.68,1.81,202.3,-999.0,'1111122,1111122,1111122' 
DISL,ioos:station:DISL:DISL:1,2017-03-01T17:00:00Z,30.2513,-88.0778,9.68,2.04,209.8,-999.0,'1111122,1111122,1111122' 
DISL,ioos:station:DISL:DISL:1,2017-03-01T17:30:00Z,30.2513,-88.0778,9.68,2.28,202.4,-999.0,'1111122,1111122,1111122' 
DISL,ioos:station:DISL:DISL:1,2017-03-01T18:00:00Z,30.2513,-88.0778,9.68,2.04,211.5,-999.0,'1111122,1111122,1111122' 
DISL,ioos:station:DISL:DISL:1,2017-03-01T18:30:00Z,30.2513,-88.0778,9.68,1.95,226.0,-999.0,'1111122,1111122,1111122' 
DISL,ioos:station:DISL:DISL:1,2017-03-01T19:00:00Z,30.2513,-88.0778,9.68,2.07,217.7,-999.0,'1111122,1111122,1111122' 
DISL,ioos:station:DISL:DISL:1,2017-03-01T19:30:00Z,30.2513,-88.0778,9.68,1.82,198.7,-999.0,'1111122,1111122,1111122' 
DISL,ioos:station:DISL:DISL:1,2017-03-01T20:00:00Z,30.2513,-88.0778,9.68,2.25,175.7,-999.0,'1111122,1111122,1111122' 
DISL,ioos:station:DISL:DISL:1,2017-03-01T20:30:00Z,30.2513,-88.0778,9.68,3.35,174.4,-999.0,'1111122,1111122,1111122' 
DISL,ioos:station:DISL:DISL:1,2017-03-01T21:00:00Z,30.2513,-88.0778,9.68,3.21,169.3,-999.0,'1111122,1111122,1111122' 
DISL,ioos:station:DISL:DISL:1,2017-03-01T21:30:00Z,30.2513,-88.0778,9.68,3.58,172.7,-999.0,'1111122,1111122,1111122' 
DISL,ioos:station:DISL:DISL:1,2017-03-01T22:00:00Z,30.2513,-88.0778,9.68,2.17,189.0,-999.0,'1111122,1111122,1111122' 
DISL,ioos:station:DISL:DISL:1,2017-03-01T22:30:00Z,30.2513,-88.0778,9.68,1.75,188.6,-999.0,'1111122,1111122,1111122' 
DISL,ioos:station:DISL:DISL:1,2017-03-01T23:00:00Z,30.2513,-88.0778,9.68,3.39,178.4,-999.0,'1111122,1111122,1111122' 
DISL,ioos:station:DISL:DISL:1,2017-03-01T23:30:00Z,30.2513,-88.0778,9.68,1.69,190.0,-999.0,'1111122,1111122,1111122' 
DISL,ioos:station:DISL:DISL:1,2017-03-02T00:00:00Z,30.2513,-88.0778,9.68,2.16,211.0,-999.0,'1111122,1111122,1111122' 
DISL,ioos:station:DISL:DISL:1,2017-03-02T00:30:00Z,30.2513,-88.0778,9.68,2.02,200.9,-999.0,'1111122,1111122,1111122' 
DISL,ioos:station:DISL:DISL:1,2017-03-02T01:00:00Z,30.2513,-88.0778,9.68,1.97,193.2,-999.0,'1111122,1111122,1111122' 
DISL,ioos:station:DISL:DISL:1,2017-03-02T01:30:00Z,30.2513,-88.0778,9.68,2.12,218.3,-999.0,'1111122,1111122,1111122' 
DISL,ioos:station:DISL:DISL:1,2017-03-02T02:00:00Z,30.2513,-88.0778,9.68,1.78,212.3,-999.0,'1111122,1111122,1111122' 
DISL,ioos:station:DISL:DISL:1,2017-03-02T02:30:00Z,30.2513,-88.0778,9.68,2.42,219.0,-999.0,'1111122,1111122,1111122' 
DISL,ioos:station:DISL:DISL:1,2017-03-02T03:00:00Z,30.2513,-88.0778,9.68,1.82,239.2,-999.0,'1111122,1111122,1111122' 
DISL,ioos:station:DISL:DISL:1,2017-03-02T03:30:00Z,30.2513,-88.0778,9.68,2.19,238.0,-999.0,'1111122,1111122,1111122' 
DISL,ioos:station:DISL:DISL:1,2017-03-02T04:00:00Z,30.2513,-88.0778,9.68,2.97,222.4,-999.0,'1111122,1111122,1111122' 
DISL,ioos:station:DISL:DISL:1,2017-03-02T04:30:00Z,30.2513,-88.0778,9.68,10.04,356.2,-999.0,'1111122,1111122,1111122' 
DISL,ioos:station:DISL:DISL:1,2017-03-02T05:00:00Z,30.2513,-88.0778,9.68,9.55,354.5,-999.0,'1111122,1111122,1111122' 
DISL,ioos:station:DISL:DISL:1,2017-03-02T05:30:00Z,30.2513,-88.0778,9.68,9.2,2.692,-999.0,'1111122,1111122,1111122' 
DISL,ioos:station:DISL:DISL:1,2017-03-02T06:30:00Z,30.2513,-88.0778,9.68,9.56,355.6,-999.0,'1111122,1111122,1111122' 
DISL,ioos:station:DISL:DISL:1,2017-03-02T07:00:00Z,30.2513,-88.0778,9.68,10.62,355.2,-999.0,'1111122,1111122,1111122' 
DISL,ioos:station:DISL:DISL:1,2017-03-02T07:30:00Z,30.2513,-88.0778,9.68,10.85,2.082,-999.0,'1111122,1111122,1111122' 
DISL,ioos:station:DISL:DISL:1,2017-03-02T08:00:00Z,30.2513,-88.0778,9.68,13.01,3.952,-999.0,'1111122,1111122,1111122' 
DISL,ioos:station:DISL:DISL:1,2017-03-02T08:30:00Z,30.2513,-88.0778,9.68,13.09,358.5,-999.0,'1111122,1111122,1111122' 
DISL,ioos:station:DISL:DISL:1,2017-03-02T09:00:00Z,30.2513,-88.0778,9.68,12.84,2.402,-999.0,'1111122,1111122,1111122' 
DISL,ioos:station:DISL:DISL:1,2017-03-02T09:30:00Z,30.2513,-88.0778,9.68,12.54,359.0,-999.0,'1111122,1111122,1111122' 
DISL,ioos:station:DISL:DISL:1,2017-03-02T10:00:00Z,30.2513,-88.0778,9.68,13.87,15.38,-999.0,'1111122,1111122,1111122' 
DISL,ioos:station:DISL:DISL:1,2017-03-02T10:30:00Z,30.2513,-88.0778,9.68,12.73,10.51,-999.0,'1111122,1111122,1111122' 
DISL,ioos:station:DISL:DISL:1,2017-03-02T11:00:00Z,30.2513,-88.0778,9.68,13.02,14.92,-999.0,'1111122,1111122,1111122' 
DISL,ioos:station:DISL:DISL:1,2017-03-02T11:30:00Z,30.2513,-88.0778,9.68,13.46,12.08,-999.0,'1111122,1111122,1111122' 
DISL,ioos:station:DISL:DISL:1,2017-03-02T12:00:00Z,30.2513,-88.0778,9.68,13.64,19.01,-999.0,'1111122,1111122,1111122' 
DISL,ioos:station:DISL:DISL:1,2017-03-02T12:30:00Z,30.2513,-88.0778,9.68,13.43,12.9,-999.0,'1111122,1111122,1111122' 
DISL,ioos:station:DISL:DISL:1,2017-03-02T13:00:00Z,30.2513,-88.0778,9.68,13.59,14.7,-999.0,'1111122,1111122,1111122' 
DISL,ioos:station:DISL:DISL:1,2017-03-02T13:30:00Z,30.2513,-88.0778,9.68,13.4,10.88,-999.0,'1111122,1111122,1111122' 
DISL,ioos:station:DISL:DISL:1,2017-03-02T14:00:00Z,30.2513,-88.0778,9.68,13.59,19.49,-999.0,'1111122,1111122,1111122' 
DISL,ioos:station:DISL:DISL:1,2017-03-02T14:30:00Z,30.2513,-88.0778,9.68,12.98,22.05,-999.0,'1111122,1111122,1111122' 
DISL,ioos:station:DISL:DISL:1,2017-03-02T15:00:00Z,30.2513,-88.0778,9.68,12.7,13.3,-999.0,'1111122,1111122,1111122' 
DISL,ioos:station:DISL:DISL:1,2017-03-02T15:30:00Z,30.2513,-88.0778,9.68,13.27,11.96,-999.0,'1111122,1111122,1111122' 
DISL,ioos:station:DISL:DISL:1,2017-03-02T16:00:00Z,30.2513,-88.0778,9.68,12.54,4.83,-999.0,'1111122,1111122,1111122' 
DISL,ioos:station:DISL:DISL:1,2017-03-02T16:30:00Z,30.2513,-88.0778,9.68,11.8,13.9,-999.0,'1111122,1111122,1111122' 
DISL,ioos:station:DISL:DISL:1,2017-03-02T17:00:00Z,30.2513,-88.0778,9.68,11.09,4.983,-999.0,'1111122,1111122,1111122' 
DISL,ioos:station:DISL:DISL:1,2017-03-02T17:30:00Z,30.2513,-88.0778,9.68,11.11,7.305,-999.0,'1111122,1111122,1111122' 
DISL,ioos:station:DISL:DISL:1,2017-03-02T18:00:00Z,30.2513,-88.0778,9.68,10.57,3.136,-999.0,'1111122,1111122,1111122' 
DISL,ioos:station:DISL:DISL:1,2017-03-02T18:30:00Z,30.2513,-88.0778,9.68,10.58,358.7,-999.0,'1111122,1111122,1111122' 
DISL,ioos:station:DISL:DISL:1,2017-03-02T19:00:00Z,30.2513,-88.0778,9.68,10.55,352.1,-999.0,'1111122,1111122,1111122' 
DISL,ioos:station:DISL:DISL:1,2017-03-02T19:30:00Z,30.2513,-88.0778,9.68,10.17,356.1,-999.0,'1111122,1111122,1111122' 
DISL,ioos:station:DISL:DISL:1,2017-03-02T20:00:00Z,30.2513,-88.0778,9.68,10.16,0.383,-999.0,'1111122,1111122,1111122' 
DISL,ioos:station:DISL:DISL:1,2017-03-02T20:30:00Z,30.2513,-88.0778,9.68,10.37,357.7,-999.0,'1111122,1111122,1111122' 
DISL,ioos:station:DISL:DISL:1,2017-03-02T21:00:00Z,30.2513,-88.0778,9.68,10.5,0.134,-999.0,'1111122,1111122,1111122' 
DISL,ioos:station:DISL:DISL:1,2017-03-02T21:30:00Z,30.2513,-88.0778,9.68,9.81,4.385,-999.0,'1111122,1111122,1111122' 
DISL,ioos:station:DISL:DISL:1,2017-03-02T22:00:00Z,30.2513,-88.0778,9.68,9.29,356.3,-999.0,'1111122,1111122,1111122' 
DISL,ioos:station:DISL:DISL:1,2017-03-02T22:30:00Z,30.2513,-88.0778,9.68,8.38,6.515,-999.0,'1111122,1111122,1111122' 
DISL,ioos:station:DISL:DISL:1,2017-03-02T23:00:00Z,30.2513,-88.0778,9.68,9.07,3.241,-999.0,'1111122,1111122,1111122' 
DISL,ioos:station:DISL:DISL:1,2017-03-02T23:30:00Z,30.2513,-88.0778,9.68,9.68,3.308,-999.0,'1111122,1111122,1111122' 
DISL,ioos:station:DISL:DISL:1,2017-03-03T00:00:00Z,30.2513,-88.0778,9.68,10.28,12.66,-999.0,'1111122,1111122,1111122' 
DISL,ioos:station:DISL:DISL:1,2017-03-03T00:30:00Z,30.2513,-88.0778,9.68,9.66,15.82,-999.0,'1111122,1111122,1111122' 
DISL,ioos:station:DISL:DISL:1,2017-03-03T01:00:00Z,30.2513,-88.0778,9.68,8.98,24.9,-999.0,'1111122,1111122,1111122' 
DISL,ioos:station:DISL:DISL:1,2017-03-03T01:30:00Z,30.2513,-88.0778,9.68,8.0,28.06,-999.0,'1111122,1111122,1111122' 
DISL,ioos:station:DISL:DISL:1,2017-03-03T02:00:00Z,30.2513,-88.0778,9.68,7.31,28.43,-999.0,'1111122,1111122,1111122' 
DISL,ioos:station:DISL:DISL:1,2017-03-03T02:30:00Z,30.2513,-88.0778,9.68,8.81,21.07,-999.0,'1111122,1111122,1111122' 
DISL,ioos:station:DISL:DISL:1,2017-03-03T03:00:00Z,30.2513,-88.0778,9.68,9.95,15.66,-999.0,'1111122,1111122,1111122' 
DISL,ioos:station:DISL:DISL:1,2017-03-03T03:30:00Z,30.2513,-88.0778,9.68,10.4,10.5,-999.0,'1111122,1111122,1111122' 
DISL,ioos:station:DISL:DISL:1,2017-03-03T04:00:00Z,30.2513,-88.0778,9.68,11.24,9.26,-999.0,'1111122,1111122,1111122' 
DISL,ioos:station:DISL:DISL:1,2017-03-03T04:30:00Z,30.2513,-88.0778,9.68,10.87,17.31,-999.0,'1111122,1111122,1111122' 
DISL,ioos:station:DISL:DISL:1,2017-03-03T05:00:00Z,30.2513,-88.0778,9.68,10.97,17.72,-999.0,'1111122,1111122,1111122' 
DISL,ioos:station:DISL:DISL:1,2017-03-03T05:30:00Z,30.2513,-88.0778,9.68,9.13,6.092,-999.0,'1111122,1111122,1111122' 
DISL,ioos:station:DISL:DISL:1,2017-03-03T06:30:00Z,30.2513,-88.0778,9.68,9.15,14.9,-999.0,'1111122,1111122,1111122' 
DISL,ioos:station:DISL:DISL:1,2017-03-03T07:00:00Z,30.2513,-88.0778,9.68,8.38,17.87,-999.0,'1111122,1111122,1111122' 
DISL,ioos:station:DISL:DISL:1,2017-03-03T07:30:00Z,30.2513,-88.0778,9.68,9.48,13.85,-999.0,'1111122,1111122,1111122' 
DISL,ioos:station:DISL:DISL:1,2017-03-03T08:00:00Z,30.2513,-88.0778,9.68,9.05,14.5,-999.0,'1111122,1111122,1111122' 
DISL,ioos:station:DISL:DISL:1,2017-03-03T08:30:00Z,30.2513,-88.0778,9.68,9.24,19.05,-999.0,'1111122,1111122,1111122' 
DISL,ioos:station:DISL:DISL:1,2017-03-03T09:00:00Z,30.2513,-88.0778,9.68,9.81,17.99,-999.0,'1111122,1111122,1111122' 
DISL,ioos:station:DISL:DISL:1,2017-03-03T09:30:00Z,30.2513,-88.0778,9.68,9.66,20.14,-999.0,'1111122,1111122,1111122' 
DISL,ioos:station:DISL:DISL:1,2017-03-03T10:00:00Z,30.2513,-88.0778,9.68,9.1,22.83,-999.0,'1111122,1111122,1111122' 
DISL,ioos:station:DISL:DISL:1,2017-03-03T10:30:00Z,30.2513,-88.0778,9.68,8.83,24.83,-999.0,'1111122,1111122,1111122' 
DISL,ioos:station:DISL:DISL:1,2017-03-03T11:00:00Z,30.2513,-88.0778,9.68,9.3,27.28,-999.0,'1111122,1111122,1111122' 
DISL,ioos:station:DISL:DISL:1,2017-03-03T11:30:00Z,30.2513,-88.0778,9.68,9.37,35.79,-999.0,'1111122,1111122,1111122' 
DISL,ioos:station:DISL:DISL:1,2017-03-03T12:00:00Z,30.2513,-88.0778,9.68,9.7,38.63,-999.0,'1111122,1111122,1111122' 
DISL,ioos:station:DISL:DISL:1,2017-03-03T12:30:00Z,30.2513,-88.0778,9.68,8.96,43.07,-999.0,'1111122,1111122,1111122' 
DISL,ioos:station:DISL:DISL:1,2017-03-03T13:00:00Z,30.2513,-88.0778,9.68,8.87,46.83,-999.0,'1111122,1111122,1111122' 
DISL,ioos:station:DISL:DISL:1,2017-03-03T13:30:00Z,30.2513,-88.0778,9.68,8.92,46.12,-999.0,'1111122,1111122,1111122' 
DISL,ioos:station:DISL:DISL:1,2017-03-03T14:00:00Z,30.2513,-88.0778,9.68,8.52,51.6,-999.0,'1111122,1111122,1111122' 
DISL,ioos:station:DISL:DISL:1,2017-03-03T14:30:00Z,30.2513,-88.0778,9.68,8.21,56.21,-999.0,'1111122,1111122,1111122' 
DISL,ioos:station:DISL:DISL:1,2017-03-03T15:00:00Z,30.2513,-88.0778,9.68,7.09,53.03,-999.0,'1111122,1111122,1111122' 
DISL,ioos:station:DISL:DISL:1,2017-03-03T15:30:00Z,30.2513,-88.0778,9.68,6.14,40.99,-999.0,'1111122,1111122,1111122' 
DISL,ioos:station:DISL:DISL:1,2017-03-03T16:00:00Z,30.2513,-88.0778,9.68,5.49,36.26,-999.0,'1111122,1111122,1111122' 
DISL,ioos:station:DISL:DISL:1,2017-03-03T16:30:00Z,30.2513,-88.0778,9.68,5.43,39.28,-999.0,'1111122,1111122,1111122' 
DISL,ioos:station:DISL:DISL:1,2017-03-03T17:00:00Z,30.2513,-88.0778,9.68,5.93,356.6,-999.0,'1111122,1111122,1111122' 
DISL,ioos:station:DISL:DISL:1,2017-03-03T17:30:00Z,30.2513,-88.0778,9.68,6.11,350.6,-999.0,'1111122,1111122,1111122' 
DISL,ioos:station:DISL:DISL:1,2017-03-03T18:00:00Z,30.2513,-88.0778,9.68,6.75,354.7,-999.0,'1111122,1111122,1111122' 
DISL,ioos:station:DISL:DISL:1,2017-03-03T18:30:00Z,30.2513,-88.0778,9.68,6.67,6.876,-999.0,'1111122,1111122,1111122' 
DISL,ioos:station:DISL:DISL:1,2017-03-03T19:00:00Z,30.2513,-88.0778,9.68,7.97,359.8,-999.0,'1111122,1111122,1111122' 
DISL,ioos:station:DISL:DISL:1,2017-03-03T19:30:00Z,30.2513,-88.0778,9.68,7.59,355.8,-999.0,'1111122,1111122,1111122' 
DISL,ioos:station:DISL:DISL:1,2017-03-03T20:00:00Z,30.2513,-88.0778,9.68,6.89,354.4,-999.0,'1111122,1111122,1111122' 
DISL,ioos:station:DISL:DISL:1,2017-03-03T20:30:00Z,30.2513,-88.0778,9.68,7.55,343.5,-999.0,'1111122,1111122,1111122' 
DISL,ioos:station:DISL:DISL:1,2017-03-03T21:00:00Z,30.2513,-88.0778,9.68,6.86,353.6,-999.0,'1111122,1111122,1111122' 
DISL,ioos:station:DISL:DISL:1,2017-03-03T21:30:00Z,30.2513,-88.0778,9.68,6.6,352.5,-999.0,'1111122,1111122,1111122' 
DISL,ioos:station:DISL:DISL:1,2017-03-03T22:00:00Z,30.2513,-88.0778,9.68,6.48,355.7,-999.0,'1111122,1111122,1111122' 
DISL,ioos:station:DISL:DISL:1,2017-03-03T22:30:00Z,30.2513,-88.0778,9.68,7.14,7.757,-999.0,'1111122,1111122,1111122' 
DISL,ioos:station:DISL:DISL:1,2017-03-03T23:00:00Z,30.2513,-88.0778,9.68,5.75,19.27,-999.0,'1111122,1111122,1111122' 
DISL,ioos:station:DISL:DISL:1,2017-03-03T23:30:00Z,30.2513,-88.0778,9.68,7.2,40.15,-999.0,'1111122,1111122,1111122' 
DISL,ioos:station:DISL:DISL:1,2017-03-04T00:00:00Z,30.2513,-88.0778,9.68,7.83,36.23,-999.0,'1111122,1111122,1111122' 
DISL,ioos:station:DISL:DISL:1,2017-03-04T00:30:00Z,30.2513,-88.0778,9.68,8.06,32.43,-999.0,'1111122,1111122,1111122' 
DISL,ioos:station:DISL:DISL:1,2017-03-04T01:00:00Z,30.2513,-88.0778,9.68,8.29,32.21,-999.0,'1111122,1111122,1111122' 
DISL,ioos:station:DISL:DISL:1,2017-03-04T01:30:00Z,30.2513,-88.0778,9.68,7.68,27.33,-999.0,'1111122,1111122,1111122' 
DISL,ioos:station:DISL:DISL:1,2017-03-04T02:00:00Z,30.2513,-88.0778,9.68,7.54,34.23,-999.0,'1111122,1111122,1111122' 
DISL,ioos:station:DISL:DISL:1,2017-03-04T02:30:00Z,30.2513,-88.0778,9.68,8.05,36.08,-999.0,'1111122,1111122,1111122' 
DISL,ioos:station:DISL:DISL:1,2017-03-04T03:00:00Z,30.2513,-88.0778,9.68,8.89,35.32,-999.0,'1111122,1111122,1111122' 
DISL,ioos:station:DISL:DISL:1,2017-03-04T03:30:00Z,30.2513,-88.0778,9.68,7.41,41.72,-999.0,'1111122,1111122,1111122' 
DISL,ioos:station:DISL:DISL:1,2017-03-04T04:00:00Z,30.2513,-88.0778,9.68,8.16,47.78,-999.0,'1111122,1111122,1111122' 
DISL,ioos:station:DISL:DISL:1,2017-03-04T04:30:00Z,30.2513,-88.0778,9.68,7.73,48.97,-999.0,'1111122,1111122,1111122' 
DISL,ioos:station:DISL:DISL:1,2017-03-04T05:00:00Z,30.2513,-88.0778,9.68,6.87,56.49,-999.0,'1111122,1111122,1111122' 
DISL,ioos:station:DISL:DISL:1,2017-03-04T05:30:00Z,30.2513,-88.0778,9.68,7.07,50.5,-999.0,'1111122,1111122,1111122' 
DISL,ioos:station:DISL:DISL:1,2017-03-04T06:30:00Z,30.2513,-88.0778,9.68,7.99,61.9,-999.0,'1111122,1111122,1111122' 
DISL,ioos:station:DISL:DISL:1,2017-03-04T07:00:00Z,30.2513,-88.0778,9.68,8.27,63.08,-999.0,'1111122,1111122,1111122' 
DISL,ioos:station:DISL:DISL:1,2017-03-04T07:30:00Z,30.2513,-88.0778,9.68,8.31,59.46,-999.0,'1111122,1111122,1111122' 
DISL,ioos:station:DISL:DISL:1,2017-03-04T08:00:00Z,30.2513,-88.0778,9.68,8.89,59.5,-999.0,'1111122,1111122,1111122' 
DISL,ioos:station:DISL:DISL:1,2017-03-04T08:30:00Z,30.2513,-88.0778,9.68,9.24,60.73,-999.0,'1111122,1111122,1111122' 
DISL,ioos:station:DISL:DISL:1,2017-03-04T09:00:00Z,30.2513,-88.0778,9.68,9.77,64.12,-999.0,'1111122,1111122,1111122' 
DISL,ioos:station:DISL:DISL:1,2017-03-04T09:30:00Z,30.2513,-88.0778,9.68,9.66,65.94,-999.0,'1111122,1111122,1111122' 
DISL,ioos:station:DISL:DISL:1,2017-03-04T10:00:00Z,30.2513,-88.0778,9.68,9.59,73.44,-999.0,'1111122,1111122,1111122' 
DISL,ioos:station:DISL:DISL:1,2017-03-04T10:30:00Z,30.2513,-88.0778,9.68,9.59,75.84,-999.0,'1111122,1111122,1111122' 
DISL,ioos:station:DISL:DISL:1,2017-03-04T11:00:00Z,30.2513,-88.0778,9.68,9.35,73.3,-999.0,'1111122,1111122,1111122' 
DISL,ioos:station:DISL:DISL:1,2017-03-04T11:30:00Z,30.2513,-88.0778,9.68,9.01,70.89,-999.0,'1111122,1111122,1111122' 
DISL,ioos:station:DISL:DISL:1,2017-03-04T12:00:00Z,30.2513,-88.0778,9.68,9.37,67.19,-999.0,'1111122,1111122,1111122' 
DISL,ioos:station:DISL:DISL:1,2017-03-04T12:30:00Z,30.2513,-88.0778,9.68,9.82,68.24,-999.0,'1111122,1111122,1111122' 
DISL,ioos:station:DISL:DISL:1,2017-03-04T13:00:00Z,30.2513,-88.0778,9.68,9.89,70.32,-999.0,'1111122,1111122,1111122' 
DISL,ioos:station:DISL:DISL:1,2017-03-04T13:30:00Z,30.2513,-88.0778,9.68,9.34,76.8,-999.0,'1111122,1111122,1111122' 
DISL,ioos:station:DISL:DISL:1,2017-03-04T14:00:00Z,30.2513,-88.0778,9.68,9.02,79.72,-999.0,'1111122,1111122,1111122' 
DISL,ioos:station:DISL:DISL:1,2017-03-04T14:30:00Z,30.2513,-88.0778,9.68,8.23,85.3,-999.0,'1111122,1111122,1111122' 
DISL,ioos:station:DISL:DISL:1,2017-03-04T15:00:00Z,30.2513,-88.0778,9.68,7.53,80.5,-999.0,'1111122,1111122,1111122' 
DISL,ioos:station:DISL:DISL:1,2017-03-04T15:30:00Z,30.2513,-88.0778,9.68,7.72,82.0,-999.0,'1111122,1111122,1111122' 
DISL,ioos:station:DISL:DISL:1,2017-03-04T16:00:00Z,30.2513,-88.0778,9.68,7.61,80.1,-999.0,'1111122,1111122,1111122' 
DISL,ioos:station:DISL:DISL:1,2017-03-04T16:30:00Z,30.2513,-88.0778,9.68,7.52,80.1,-999.0,'1111122,1111122,1111122' 
DISL,ioos:station:DISL:DISL:1,2017-03-04T17:00:00Z,30.2513,-88.0778,9.68,7.19,86.7,-999.0,'1111122,1111122,1111122' 
DISL,ioos:station:DISL:DISL:1,2017-03-04T17:30:00Z,30.2513,-88.0778,9.68,6.9,90.5,-999.0,'1111122,1111122,1111122' 
DISL,ioos:station:DISL:DISL:1,2017-03-04T18:00:00Z,30.2513,-88.0778,9.68,6.41,81.3,-999.0,'1111122,1111122,1111122' 
DISL,ioos:station:DISL:DISL:1,2017-03-04T18:30:00Z,30.2513,-88.0778,9.68,7.2,84.1,-999.0,'1111122,1111122,1111122' 
DISL,ioos:station:DISL:DISL:1,2017-03-04T19:00:00Z,30.2513,-88.0778,9.68,6.55,89.3,-999.0,'1111122,1111122,1111122' 
DISL,ioos:station:DISL:DISL:1,2017-03-04T19:30:00Z,30.2513,-88.0778,9.68,7.58,105.7,-999.0,'1111122,1111122,1111122' 
DISL,ioos:station:DISL:DISL:1,2017-03-04T20:00:00Z,30.2513,-88.0778,9.68,7.7,103.2,-999.0,'1111122,1111122,1111122' 
DISL,ioos:station:DISL:DISL:1,2017-03-04T20:30:00Z,30.2513,-88.0778,9.68,7.25,106.6,-999.0,'1111122,1111122,1111122' 
DISL,ioos:station:DISL:DISL:1,2017-03-04T21:00:00Z,30.2513,-88.0778,9.68,6.73,107.3,-999.0,'1111122,1111122,1111122' 
DISL,ioos:station:DISL:DISL:1,2017-03-04T21:30:00Z,30.2513,-88.0778,9.68,5.86,117.3,-999.0,'1111122,1111122,1111122' 
DISL,ioos:station:DISL:DISL:1,2017-03-04T22:00:00Z,30.2513,-88.0778,9.68,5.99,118.4,-999.0,'1111122,1111122,1111122' 
DISL,ioos:station:DISL:DISL:1,2017-03-04T22:30:00Z,30.2513,-88.0778,9.68,6.8,115.2,-999.0,'1111122,1111122,1111122' 
DISL,ioos:station:DISL:DISL:1,2017-03-04T23:00:00Z,30.2513,-88.0778,9.68,5.82,124.9,-999.0,'1111122,1111122,1111122' 
DISL,ioos:station:DISL:DISL:1,2017-03-04T23:30:00Z,30.2513,-88.0778,9.68,6.27,115.5,-999.0,'1111122,1111122,1111122' 
DISL,ioos:station:DISL:DISL:1,2017-03-05T00:00:00Z,30.2513,-88.0778,9.68,4.77,132.8,-999.0,'1111122,1111122,1111122' 
DISL,ioos:station:DISL:DISL:1,2017-03-05T00:30:00Z,30.2513,-88.0778,9.68,5.27,133.3,-999.0,'1111122,1111122,1111122' 
DISL,ioos:station:DISL:DISL:1,2017-03-05T01:00:00Z,30.2513,-88.0778,9.68,5.36,128.2,-999.0,'1111122,1111122,1111122' 
DISL,ioos:station:DISL:DISL:1,2017-03-05T01:30:00Z,30.2513,-88.0778,9.68,5.3,125.1,-999.0,'1111122,1111122,1111122' 
DISL,ioos:station:DISL:DISL:1,2017-03-05T02:00:00Z,30.2513,-88.0778,9.68,4.91,120.6,-999.0,'1111122,1111122,1111122' 
DISL,ioos:station:DISL:DISL:1,2017-03-05T02:30:00Z,30.2513,-88.0778,9.68,3.51,117.7,-999.0,'1111122,1111122,1111122' 
DISL,ioos:station:DISL:DISL:1,2017-03-05T03:00:00Z,30.2513,-88.0778,9.68,3.23,112.4,-999.0,'1111122,1111122,1111122' 
DISL,ioos:station:DISL:DISL:1,2017-03-05T03:30:00Z,30.2513,-88.0778,9.68,3.07,93.9,-999.0,'1111122,1111122,1111122' 
DISL,ioos:station:DISL:DISL:1,2017-03-05T04:00:00Z,30.2513,-88.0778,9.68,2.82,63.48,-999.0,'1111122,1111122,1111122' 
DISL,ioos:station:DISL:DISL:1,2017-03-05T04:30:00Z,30.2513,-88.0778,9.68,3.15,39.15,-999.0,'1111122,1111122,1111122' 
DISL,ioos:station:DISL:DISL:1,2017-03-05T05:00:00Z,30.2513,-88.0778,9.68,3.43,35.21,-999.0,'1111122,1111122,1111122' 
DISL,ioos:station:DISL:DISL:1,2017-03-05T05:30:00Z,30.2513,-88.0778,9.68,4.22,45.78,-999.0,'1111122,1111122,1111122' 
DISL,ioos:station:DISL:DISL:1,2017-03-05T06:30:00Z,30.2513,-88.0778,9.68,4.42,52.15,-999.0,'1111122,1111122,1111122' 